Hourly Data Report for November 26, 2017

All times are specified in Local Standard Time (LST). Add 1 hour to adjust for Daylight Saving Time where and when it is observed.

GREENWOOD A
NOVA SCOTIA

44°59'00.000" N
64°55'00.000" W
28.00 m
8202000
71397
YZX

Download Data

Hourly Data (November 2017)
Hourly Data Report for November 26, 2017
Temp Definition
°C
Dew Point Temp Definition
°C
Rel Hum Definition
%
Wind Dir Definition
10's deg

Wind Spd Definition
km/h
Visibility Definition
km
Stn Press Definition
kPa
Hmdx Definition


Wind Chill Definition


Weather Definition


TIME
00:00 7.8 6.8 93 31 6 24.1 100.03     Mostly Cloudy
01:00 8.9 8.0 94 20 6 24.1 99.95     Mainly Clear
02:00 5.9 5.5 97 10 4 8.0 99.89     Fog
03:00 4.4 4.2 99 32 4 2.4 99.86     Fog
04:00 5.0 4.8 99   0 4.0 99.80     Fog
05:00 4.5 4.3 99   0 4.8 99.72     Fog
06:00 4.2 4.0 99 36 4 1.6 99.64     Fog
07:00 4.6 4.4 99 18 6 1.2 99.64     Fog
08:00 4.8 4.6 99   0 16.1 99.62     Mostly Cloudy
09:00 5.2 5.0 99   0 16.1 99.57     Rain Showers
10:00 6.0 5.8 99   0 12.9 99.51     Rain Showers
11:00 7.8 7.6 99 25 7 4.8 99.45     Fog
12:00 8.4 8.2 99 24 9 19.3 99.37     Cloudy
13:00 8.7 6.8 88 25 13 24.1 99.32     Cloudy
14:00 8.0 5.8 86 28 17 24.1 99.24     Cloudy
15:00 7.3 5.5 88 30 15 16.1 99.21     Rain Showers
16:00 5.8 4.3 90 30 20 12.9 99.29     Rain Showers
17:00 3.4 2.1 91 29 35 4.8 99.51     Rain Showers,Fog
18:00 2.3 1.1 92 29 28 3.2 99.67     Rain Showers,Fog
19:00 2.8 0.4 84 28 22 3.2 99.80     Rain Showers,Fog
20:00 2.0 -1.0 80 30 26 19.3 99.85     Rain Showers
21:00 1.0 -1.3 85 29 32 24.1 99.93     Drizzle
22:00 0.2 -3.2 78 29 26 24.1 100.05     Drizzle
23:00 -0.2 -3.1 81 30 24 24.1 100.10   -6 Cloudy

Notes on Data Quality.

Legend

  • E = Estimated
  • M = Missing
  • NA = Not Available
  • ‡ = Partner data that is not subject to review by the National Climate Archives
Date modified: